This is the latest recevied weather packets stored in our database for station/object KD0OXW. If no packets are shown the sender has not sent any weather packets the latest 10 day(s).
| Time | Temp. | Humidity | Pressure | Rain* | Wind** | Luminosity | Snow |
|---|---|---|---|---|---|---|---|
| 1778007189 | 4.44° C | 52% | 1010.3 hPa | 0 mm | - | - | - |
| 1778006889 | 4.44° C | 52% | 1010.3 hPa | 0 mm | - | - | - |
| 1778006589 | 4.44° C | 51% | 1010.4 hPa | 0 mm | - | - | - |
| 1778006289 | 4.44° C | 51% | 1010.2 hPa | 0 mm | - | - | - |
| 1778005989 | 4.44° C | 53% | 1010.2 hPa | 0 mm | - | - | - |
| 1778005689 | 4.44° C | 51% | 1010.2 hPa | 0 mm | - | - | - |
| 1778005389 | 4.44° C | 51% | 1010.2 hPa | 0 mm | - | - | - |
| 1778005089 | 4.44° C | 53% | 1010.2 hPa | 0 mm | - | - | - |
| 1778004789 | 3.89° C | 52% | 1010.2 hPa | 0 mm | - | - | - |
| 1778004489 | 4.44° C | 51% | 1010.2 hPa | 0 mm | - | - | - |
| 1778004189 | 3.89° C | 51% | 1010.2 hPa | 0 mm | - | - | - |
| 1778003889 | 3.89° C | 55% | 1010.2 hPa | 0 mm | - | - | - |
| 1778003589 | 3.89° C | 52% | 1010.3 hPa | 0 mm | - | - | - |
| 1778003289 | 3.33° C | 55% | 1010.3 hPa | 0 mm | - | - | - |
| 1778002989 | 3.33° C | 53% | 1010.3 hPa | 0 mm | - | - | - |
| 1778002689 | 3.33° C | 54% | 1010.2 hPa | 0 mm | - | - | - |
| 1778002389 | 2.78° C | 54% | 1010.2 hPa | 0 mm | - | - | - |
| 1778002089 | 2.78° C | 53% | 1010.2 hPa | 0 mm | - | - | - |
| 1778001789 | 2.78° C | 53% | 1010.1 hPa | 0 mm | - | - | - |
| 1778001489 | 3.33° C | 56% | 1010.2 hPa | 0 mm | - | - | - |
| 1778001189 | 2.78° C | 55% | 1010 hPa | 0 mm | - | - | - |
| 1778000889 | 2.78° C | 54% | 1010.1 hPa | 0 mm | - | - | - |
| 1778000589 | 2.78° C | 55% | 1010 hPa | 0 mm | - | - | - |
| 1778000289 | 2.78° C | 55% | 1009.9 hPa | 0 mm | - | - | - |
| 1777999989 | 2.78° C | 55% | 1010 hPa | 0 mm | - | - | - |
* Rain latest hour (hover to see other rain measurements)
** Current wind speed in m/s (hover to see current wind gust speed)